TimeCST,TemperatureF,Dew PointF,Humidity,Sea Level PressureIn,VisibilityMPH,Wind Direction,Wind SpeedMPH,Gust SpeedMPH,PrecipitationIn,Events,Conditions,WindDirDegrees,DateUTC
12:15 AM,51.8,50.0,94,30.08,5.0,Calm,Calm,-,N/A,,Clear,0,2012-11-05 06:15:00
12:35 AM,51.8,50.0,94,30.08,2.5,Calm,Calm,-,N/A,,Clear,0,2012-11-05 06:35:00
12:55 AM,51.8,50.0,94,30.07,2.5,Calm,Calm,-,N/A,,Clear,0,2012-11-05 06:55:00
1:15 AM,51.8,48.2,88,30.07,1.0,Calm,Calm,-,N/A,,Mist,0,2012-11-05 07:15:00
1:35 AM,51.8,48.2,88,30.07,4.0,Calm,Calm,-,N/A,,Clear,0,2012-11-05 07:35:00
1:55 AM,51.8,50.0,94,30.07,1.5,Calm,Calm,-,N/A,,Mist,0,2012-11-05 07:55:00
2:15 AM,50.0,46.4,87,30.06,10.0,Calm,Calm,-,N/A,,Clear,0,2012-11-05 08:15:00
2:35 AM,50.0,46.4,87,30.06,10.0,Calm,Calm,-,N/A,,Clear,0,2012-11-05 08:35:00
2:55 AM,50.0,46.4,87,30.06,10.0,Calm,Calm,-,N/A,,Clear,0,2012-11-05 08:55:00
3:15 AM,50.0,46.4,87,30.06,10.0,Calm,Calm,-,N/A,,Clear,0,2012-11-05 09:15:00
3:35 AM,50.0,46.4,87,30.05,1.2,Calm,Calm,-,N/A,,Mist,0,2012-11-05 09:35:00
3:55 AM,50.0,46.4,87,30.05,7.0,Calm,Calm,-,N/A,,Scattered Clouds,0,2012-11-05 09:55:00
4:15 AM,50.0,46.4,87,30.05,0.5,Calm,Calm,-,N/A,Fog,Fog,0,2012-11-05 10:15:00
4:35 AM,50.0,46.4,87,30.05,1.2,Calm,Calm,-,N/A,,Overcast,0,2012-11-05 10:35:00
4:55 AM,48.2,46.4,93,30.05,0.8,Calm,Calm,-,N/A,,Overcast,0,2012-11-05 10:55:00
5:15 AM,48.2,46.4,93,30.06,0.5,Calm,Calm,-,N/A,Fog,Fog,0,2012-11-05 11:15:00
5:35 AM,50.0,48.2,94,30.06,0.2,Calm,Calm,-,N/A,Fog,Fog,0,2012-11-05 11:35:00
5:55 AM,50.0,48.2,94,30.06,2.5,Calm,Calm,-,N/A,,Overcast,0,2012-11-05 11:55:00
6:15 AM,51.8,50.0,94,30.05,4.0,Calm,Calm,-,N/A,,Overcast,0,2012-11-05 12:15:00
6:35 AM,51.8,50.0,94,30.05,5.0,Calm,Calm,-,N/A,,Overcast,0,2012-11-05 12:35:00
6:55 AM,51.8,50.0,94,30.05,3.0,Calm,Calm,-,N/A,,Overcast,0,2012-11-05 12:55:00
7:15 AM,53.6,51.8,94,30.06,0.5,Calm,Calm,-,N/A,Fog,Fog,0,2012-11-05 13:15:00
7:35 AM,53.6,51.8,94,30.06,0.5,Calm,Calm,-,N/A,Fog,Fog,0,2012-11-05 13:35:00
7:55 AM,55.4,53.6,94,30.06,0.5,Calm,Calm,-,N/A,Fog,Fog,0,2012-11-05 13:55:00
8:15 AM,55.4,53.6,94,30.07,0.2,Calm,Calm,-,N/A,Fog,Fog,0,2012-11-05 14:15:00
8:35 AM,55.4,53.6,94,30.07,0.2,SSW,3.5,-,N/A,Fog,Fog,200,2012-11-05 14:35:00
8:55 AM,57.2,55.4,94,30.07,0.8,Calm,Calm,-,N/A,,Overcast,0,2012-11-05 14:55:00
9:15 AM,57.2,55.4,94,30.07,3.0,West,3.5,-,N/A,,Overcast,260,2012-11-05 15:15:00
9:35 AM,59.0,55.4,88,30.07,7.0,WNW,4.6,-,N/A,,Mostly Cloudy,300,2012-11-05 15:35:00
9:55 AM,60.8,55.4,82,30.08,7.0,WNW,3.5,-,N/A,,Scattered Clouds,290,2012-11-05 15:55:00
10:15 AM,62.6,55.4,77,30.07,10.0,WNW,6.9,-,N/A,,Clear,290,2012-11-05 16:15:00
10:35 AM,68.0,51.8,56,30.07,10.0,NW,9.2,-,N/A,,Clear,310,2012-11-05 16:35:00
10:55 AM,68.0,50.0,52,30.06,10.0,NW,9.2,-,N/A,,Clear,320,2012-11-05 16:55:00
11:15 AM,69.8,46.4,43,30.06,10.0,NNW,11.5,-,N/A,,Clear,330,2012-11-05 17:15:00
11:35 AM,71.6,42.8,35,30.06,10.0,NNW,10.4,19.6,N/A,,Clear,330,2012-11-05 17:35:00
11:55 AM,71.6,42.8,35,30.04,10.0,NW,11.5,-,N/A,,Clear,320,2012-11-05 17:55:00
12:15 PM,71.6,41.0,33,30.04,10.0,North,12.7,21.9,N/A,,Clear,360,2012-11-05 18:15:00
12:35 PM,73.4,41.0,31,30.03,10.0,North,13.8,17.3,N/A,,Clear,360,2012-11-05 18:35:00
12:55 PM,73.4,41.0,31,30.02,10.0,NNW,18.4,24.2,N/A,,Clear,330,2012-11-05 18:55:00
1:15 PM,73.4,41.0,31,30.02,10.0,North,9.2,19.6,N/A,,Clear,360,2012-11-05 19:15:00
1:55 PM,73.4,37.4,27,30.01,10.0,North,10.4,-,N/A,,Clear,350,2012-11-05 19:55:00
2:15 PM,73.4,37.4,27,30.01,10.0,NNW,12.7,23.0,N/A,,Clear,330,2012-11-05 20:15:00
2:35 PM,73.4,37.4,27,30.00,10.0,NW,12.7,-,N/A,,Clear,320,2012-11-05 20:35:00
2:55 PM,73.4,33.8,23,30.00,10.0,NNW,17.3,-,N/A,,Clear,340,2012-11-05 20:55:00
3:15 PM,73.4,33.8,23,30.00,10.0,NNW,12.7,21.9,N/A,,Clear,330,2012-11-05 21:15:00
3:35 PM,73.4,32.0,22,30.01,10.0,NNW,16.1,24.2,N/A,,Clear,330,2012-11-05 21:35:00
3:55 PM,73.4,33.8,23,30.00,10.0,NW,10.4,-,N/A,,Clear,320,2012-11-05 21:55:00
4:15 PM,71.6,33.8,25,30.00,10.0,NW,13.8,17.3,N/A,,Clear,320,2012-11-05 22:15:00
4:55 PM,69.8,32.0,25,30.00,10.0,NNW,10.4,17.3,N/A,,Clear,330,2012-11-05 22:55:00
5:15 PM,68.0,30.2,24,30.01,10.0,NNW,11.5,19.6,N/A,,Clear,330,2012-11-05 23:15:00
5:35 PM,68.0,28.4,23,30.01,10.0,NNW,12.7,17.3,N/A,,Clear,330,2012-11-05 23:35:00
5:55 PM,66.2,26.6,23,30.02,10.0,NNW,11.5,-,N/A,,Clear,330,2012-11-05 23:55:00
6:15 PM,64.4,26.6,24,30.02,10.0,NNW,9.2,-,N/A,,Clear,330,2012-11-06 00:15:00
6:35 PM,64.4,26.6,24,30.04,10.0,NNW,10.4,-,N/A,,Clear,330,2012-11-06 00:35:00
6:55 PM,62.6,26.6,26,30.04,10.0,NW,10.4,-,N/A,,Clear,320,2012-11-06 00:55:00
7:15 PM,60.8,28.4,29,30.06,10.0,NW,8.1,-,N/A,,Clear,320,2012-11-06 01:15:00
7:35 PM,60.8,28.4,29,30.06,10.0,NW,10.4,-,N/A,,Clear,320,2012-11-06 01:35:00
7:55 PM,60.8,30.2,31,30.07,10.0,NW,11.5,-,N/A,,Clear,320,2012-11-06 01:55:00
8:15 PM,60.8,30.2,31,30.07,10.0,NNW,9.2,-,N/A,,Clear,330,2012-11-06 02:15:00
8:55 PM,57.2,32.0,38,30.08,10.0,NW,4.6,-,N/A,,Clear,310,2012-11-06 02:55:00
9:15 PM,55.4,32.0,41,30.09,10.0,NNW,4.6,-,N/A,,Clear,340,2012-11-06 03:15:00
9:35 PM,53.6,32.0,44,30.09,10.0,North,5.8,-,N/A,,Clear,350,2012-11-06 03:35:00
9:55 PM,51.8,33.8,50,30.10,10.0,NNW,6.9,-,N/A,,Clear,340,2012-11-06 03:55:00
10:15 PM,53.6,35.6,51,30.10,10.0,NNW,5.8,-,N/A,,Clear,340,2012-11-06 04:15:00
10:35 PM,53.6,37.4,54,30.11,10.0,North,6.9,-,N/A,,Clear,360,2012-11-06 04:35:00
10:55 PM,51.8,37.4,58,30.11,10.0,North,4.6,-,N/A,,Clear,360,2012-11-06 04:55:00
11:15 PM,50.0,37.4,62,30.10,10.0,North,4.6,-,N/A,,Clear,10,2012-11-06 05:15:00
11:35 PM,51.8,37.4,58,30.10,10.0,North,3.5,-,N/A,,Clear,360,2012-11-06 05:35:00
11:55 PM,50.0,37.4,62,30.10,10.0,Calm,Calm,-,N/A,,Clear,0,2012-11-06 05:55:00